[[{"header":{"parameterUnit":"m.s-1","parameterCategory":1,"la1":30.2991,"la2":30.254,"lo1":-89.0895,"lo2":-89.0444,"dy":0.0017,"dx":0.0017,"nx":28,"ny":28,"refTime":"2025-06-19T21:00:00:Z","depth":0,"parameterNumber":2,"parameterNumberName":"U-component_of_WINDS"},"data":[0,0,0,0,0,0,0,0,0,0,0,0,0,0,0,0,0,0,0,0,0,0,0,0,0,0,0,0,0,0,0,0,0,0,0,0,0,0,0,0,0,0,0,0,0,0,0,0,0,0,0,0,0,0,0,0,0,0,2.355,2.3551,0,2.3601,2.3602,2.3602,2.3573,2.3571,2.357,2.3568,2.3626,2.3628,2.3631,0,0,0,0,0,0,0,0,0,0,0,0,0,2.3433,2.3435,2.355,2.3551,2.3551,2.3601,2.3602,2.3602,2.3573,2.3571,2.3569,2.3568,2.3625,2.3628,2.3632,0,0,0,0,0,0,0,0,0,0,0,0,0,2.3484,2.3436,2.355,2.3542,2.3542,2.3601,2.3602,2.3602,2.3573,2.3571,2.3569,2.3567,2.3624,2.3628,2.3632,2.3702,0,0,2.3645,2.3647,0,0,0,0,0,0,0,0,2.3481,2.3488,2.3543,2.3543,2.3543,2.3578,2.3581,2.3636,2.3574,2.3562,2.3568,2.3566,2.3612,2.3617,2.3632,2.3705,2.3707,2.3646,2.3648,2.365,2.3651,0,0,0,0,0,0,0,2.3478,2.3486,2.357,2.3544,2.3544,2.3538,2.3543,2.3592,2.3599,2.3562,2.356,2.3567,2.3612,2.3627,2.3633,2.3708,2.3645,2.3649,2.3652,2.3654,2.3844,2.3847,0,0,0,0,0,0,2.3474,2.3483,2.3569,2.3572,2.3506,2.3542,2.3548,2.3569,2.3598,2.36,2.3568,2.3565,2.3621,2.3628,2.3635,2.372,2.365,2.3654,2.3657,2.3842,2.3845,2.3847,0,0,0,0,0,0,2.3471,2.3482,2.3567,2.3527,2.3537,2.3546,2.3571,2.3571,2.3587,2.3602,2.3604,2.3583,2.362,2.3629,2.3686,2.3722,2.3656,2.366,2.3839,2.3843,2.3846,2.3891,0,0,0,0,0,0,2.3468,2.3481,2.3506,2.3528,2.3539,2.3615,2.3573,2.3574,2.3594,2.359,2.3616,2.3619,2.3619,2.368,2.369,2.3727,2.3663,2.3836,2.3841,2.3845,2.3887,2.3896,2.3904,0,0,0,0,0,2.3464,2.3518,2.3508,2.3518,2.3571,2.3617,2.3625,2.3622,2.3597,2.3624,2.3634,2.3618,2.3716,2.3686,2.3697,2.3736,2.3833,2.3839,2.3845,2.3883,2.3894,2.3904,0,0,0,0,0,0,2.3502,2.352,2.351,2.3571,2.3593,2.3612,2.3646,2.3634,2.3664,2.3659,2.3656,2.3663,2.3723,2.3735,2.3701,2.3806,2.3771,2.3779,2.3796,2.3807,2.3816,2.3812,2.3667,0,0,0,0,0,2.3517,2.3552,2.3567,2.362,2.3631,2.3637,2.3657,2.3653,2.3676,2.3685,2.3699,2.3724,2.376,2.3784,2.3818,2.3888,2.3895,2.392,2.3929,2.3936,2.3944,2.3984,2.3996,2.3866,2.3866,2.3866,0,0,2.355,2.3564,2.3587,2.3628,2.3644,2.3682,2.3645,2.3686,2.3714,2.3692,2.3747,2.3758,2.3785,2.3849,2.3878,2.3861,2.3981,2.3943,2.3949,2.3953,2.399,2.4003,2.4014,2.3869,2.3869,2.3868,0,0,2.3629,2.3642,2.3689,2.3706,2.373,2.3734,2.3745,2.3766,2.3773,2.3827,2.3812,2.3846,2.3909,2.3929,2.3947,2.4035,2.4023,2.4046,2.4093,2.4131,2.4142,2.4151,2.4184,2.4196,2.4053,2.4054,2.4054,0,2.3668,2.3722,2.3715,2.3758,2.3777,2.3757,2.3806,2.3823,2.3858,2.3873,2.3853,2.3931,2.3948,2.4017,2.4039,2.4054,2.4068,2.4044,2.414,2.4149,2.4158,2.4189,2.4202,2.4056,2.4056,2.4056,2.4056,0,2.3768,2.3806,2.3841,2.3874,2.3898,2.3943,2.3946,2.397,2.3965,2.3971,2.4028,2.4047,2.4085,2.4101,2.4096,2.4171,2.416,2.414,2.4105,2.4173,2.4203,2.4215,2.4061,2.406,2.4059,2.4058,0,0,2.3874,2.3902,2.3916,2.3931,2.3957,2.3987,2.4032,2.4068,2.4091,2.4116,2.4155,2.4208,2.419,2.4211,2.4208,2.4242,2.4313,2.4219,2.4219,2.4237,2.4398,2.4414,2.4428,2.4304,2.4306,2.4308,2.4397,0,2.3956,2.4033,2.4029,2.4102,2.4139,2.412,2.416,2.4181,2.4188,2.4221,2.423,2.4268,2.4241,2.4254,2.4286,2.4297,2.4345,2.429,2.4343,2.4345,2.4338,2.4443,2.446,2.4543,2.4408,2.441,2.4411,0,2.4062,2.409,2.4166,2.4187,2.4203,2.4238,2.4271,2.4303,2.4327,2.433,2.4354,2.4345,2.4393,2.4356,2.4423,2.4386,2.4407,2.4416,2.4419,2.4425,2.4383,2.4454,2.4569,2.4582,2.4429,2.4428,2.4426,0,2.4134,2.419,2.4243,2.4257,2.4282,2.4308,2.432,2.4342,2.4365,2.4394,2.4409,2.4444,2.4464,2.4493,2.4495,2.4467,2.4564,2.4526,2.457,2.457,2.4592,2.4591,2.4714,2.4603,2.4603,2.4602,2.4602,0,2.4227,2.4275,2.4276,2.4309,2.4363,2.4359,2.4413,2.4423,2.4442,2.4479,2.4465,2.4499,2.45,2.4536,2.4538,2.4594,2.4603,2.4608,2.4609,2.4611,2.461,2.4626,2.4621,2.4606,2.4605,2.4604,2.4604,0,2.4317,2.4319,2.4377,2.4396,2.4402,2.4441,2.4458,2.4491,2.4496,2.4542,2.4553,2.4563,2.4604,2.4609,2.4658,2.4659,2.4728,2.4721,2.4719,2.4719,2.4763,2.4759,2.4901,2.492,2.4795,2.4797,2.4798,0,2.4377,2.4414,2.4437,2.4459,2.4472,2.4509,2.4531,2.4528,2.4553,2.4583,2.4613,2.4652,2.4684,2.4752,2.4765,2.4802,2.4798,2.4845,2.4804,2.4805,2.4801,2.4799,2.4804,2.4854,2.4855,2.4856,2.4857,0,2.4485,2.4484,2.4516,2.4549,2.4575,2.4601,2.4626,2.4645,2.4646,2.4674,2.4716,2.474,2.479,2.483,2.4867,2.4882,2.4871,2.4869,2.4882,2.4885,2.4883,2.4887,2.4743,2.4867,2.4866,2.4865,2.4864,2.4864,2.4563,2.4595,2.4616,2.4653,2.467,2.4694,2.4725,2.4734,2.4768,2.4807,2.4804,2.485,2.4875,2.4923,2.4941,2.4978,2.4963,2.498,2.4985,2.499,2.4995,2.4875,2.4985,2.4985,2.4984,2.4984,2.4984,0,2.4672,2.4684,2.4717,2.4751,2.4781,2.4765,2.4791,2.4817,2.4858,2.4881,2.4912,2.4961,2.5,2.5015,2.5054,2.5081,2.5077,2.5092,2.5091,2.5095,2.5006,2.4992,2.5095,2.5095,2.5095,2.5095,2.5095,2.5095,2.4732,2.4786,2.4787,2.485,2.4863,2.4907,2.4924,2.4946,2.4964,2.5018,2.505,2.5059,2.508,2.512,2.5156,2.516,2.5176,2.5193,2.5195,2.5112,2.5101,2.509,2.5077,2.5196,2.5196,2.5281,2.5281,2.5282]},{"header":{"parameterUnit":"m.s-1","parameterCategory":1,"la1":30.2991,"la2":30.254,"lo1":-89.0895,"lo2":-89.0444,"dy":0.0017,"dx":0.0017,"nx":28,"ny":28,"refTime":"2025-06-19T21:00:00:Z","depth":0,"parameterNumber":3,"parameterNumberName":"V-component_of_WINDS"},"data":[0,0,0,0,0,0,0,0,0,0,0,0,0,0,0,0,0,0,0,0,0,0,0,0,0,0,0,0,0,0,0,0,0,0,0,0,0,0,0,0,0,0,0,0,0,0,0,0,0,0,0,0,0,0,0,0,0,0,2.3447,2.3447,0,2.3457,2.3457,2.3458,2.3448,2.3447,2.3447,2.3447,2.3455,2.3455,2.3456,0,0,0,0,0,0,0,0,0,0,0,0,0,2.3411,2.3412,2.3446,2.3447,2.3447,2.3457,2.3457,2.3458,2.3448,2.3447,2.3447,2.3447,2.3454,2.3455,2.3456,0,0,0,0,0,0,0,0,0,0,0,0,0,2.3425,2.3412,2.3446,2.3443,2.3443,2.3457,2.3458,2.3458,2.3448,2.3447,2.3447,2.3446,2.3454,2.3455,2.3456,2.3473,0,0,2.3458,2.3459,0,0,0,0,0,0,0,0,2.3424,2.3426,2.3444,2.3444,2.3443,2.3451,2.3448,2.3463,2.3448,2.3446,2.3447,2.3446,2.3454,2.3454,2.3458,2.3473,2.3474,2.3459,2.3459,2.3459,2.346,0,0,0,0,0,0,0,2.3423,2.3426,2.3451,2.3444,2.3444,2.3439,2.3441,2.3451,2.3453,2.3446,2.3446,2.3447,2.3453,2.3457,2.3458,2.3474,2.3459,2.3459,2.346,2.346,2.3499,2.3499,0,0,0,0,0,0,2.3423,2.3425,2.345,2.3451,2.3432,2.344,2.3442,2.3449,2.3453,2.3453,2.3448,2.3447,2.3456,2.3457,2.3458,2.3475,2.3459,2.346,2.3461,2.3498,2.3499,2.3499,0,0,0,0,0,0,2.3423,2.3426,2.345,2.3438,2.3441,2.3442,2.345,2.3449,2.3453,2.3454,2.3454,2.3451,2.3455,2.3457,2.3468,2.3475,2.3461,2.3461,2.3498,2.3498,2.3499,2.3512,0,0,0,0,0,0,2.3422,2.3425,2.3434,2.3438,2.3441,2.3462,2.345,2.345,2.3455,2.3454,2.3457,2.3457,2.3455,2.3467,2.3469,2.3476,2.3462,2.3497,2.3498,2.3499,2.3511,2.3513,2.3515,0,0,0,0,0,2.342,2.3437,2.3434,2.3437,2.3452,2.3463,2.3464,2.3462,2.3456,2.3462,2.3462,2.3457,2.3474,2.3468,2.3471,2.3478,2.3496,2.3498,2.3499,2.351,2.3512,2.3515,0,0,0,0,0,0,2.3433,2.3438,2.3435,2.3454,2.3458,2.3461,2.347,2.3466,2.3471,2.347,2.3466,2.3467,2.3478,2.348,2.3473,2.3492,2.3484,2.3486,2.3492,2.3494,2.3496,2.3495,2.3463,0,0,0,0,0,2.3438,2.3448,2.3451,2.3467,2.347,2.3469,2.3474,2.3472,2.3476,2.3477,2.3478,2.3481,2.3486,2.349,2.3496,2.3511,2.3509,2.3516,2.3518,2.352,2.3521,2.3526,2.3528,2.3503,2.3503,2.3503,0,0,2.3449,2.3453,2.3459,2.347,2.3473,2.3481,2.3471,2.3481,2.3486,2.3478,2.3489,2.3489,2.3492,2.3504,2.351,2.3505,2.3528,2.3522,2.3523,2.3523,2.3527,2.3529,2.3531,2.3504,2.3504,2.3504,0,0,2.3472,2.3477,2.349,2.3492,2.3497,2.3496,2.3499,2.3502,2.3502,2.3512,2.3506,2.3511,2.3522,2.3523,2.3525,2.3544,2.3538,2.3545,2.3556,2.356,2.3562,2.3563,2.3568,2.357,2.3547,2.3547,2.3547,0,2.3485,2.3498,2.3496,2.3506,2.3509,2.3502,2.3513,2.3515,2.3521,2.3522,2.3518,2.3529,2.353,2.3541,2.3545,2.3548,2.3549,2.3545,2.3562,2.3564,2.3565,2.3569,2.3571,2.3547,2.3547,2.3547,2.3547,0,2.3511,2.3521,2.353,2.3535,2.354,2.355,2.3547,2.3551,2.3547,2.3546,2.3555,2.3556,2.356,2.3562,2.3559,2.3571,2.3568,2.3563,2.3554,2.3568,2.3572,2.3574,2.3548,2.3548,2.3548,2.3548,0,0,2.3545,2.3547,2.355,2.3551,2.3554,2.356,2.3568,2.3572,2.3574,2.3577,2.3582,2.359,2.3584,2.3586,2.3582,2.3586,2.3598,2.358,2.358,2.3581,2.3608,2.3611,2.3613,2.3594,2.3594,2.3594,2.3607,0,2.3566,2.3582,2.3578,2.3592,2.3599,2.359,2.3597,2.3598,2.3596,2.36,2.3597,2.3601,2.3595,2.3595,2.3599,2.3596,2.3603,2.3595,2.3596,2.3596,2.3595,2.3616,2.362,2.3632,2.3609,2.3609,2.3609,0,2.3594,2.3597,2.3612,2.3611,2.3613,2.3619,2.3621,2.3625,2.3625,2.3623,2.3624,2.3618,2.3623,2.3615,2.362,2.3615,2.3615,2.3613,2.3613,2.3613,2.3603,2.3614,2.3636,2.3637,2.3612,2.3611,2.3611,0,2.3613,2.3622,2.3631,2.3632,2.3631,2.3635,2.3635,2.3634,2.3635,2.3636,2.3637,2.3638,2.3638,2.3638,2.3632,2.3627,2.3637,2.3629,2.3634,2.3634,2.3637,2.3636,2.3657,2.3638,2.3638,2.3638,2.3638,0,2.3637,2.3646,2.3639,2.3645,2.3653,2.3648,2.3656,2.3654,2.3653,2.3656,2.3649,2.3651,2.3644,2.3645,2.3641,2.3644,2.3645,2.3642,2.364,2.3642,2.3642,2.3641,2.364,2.3639,2.3639,2.3639,2.3639,0,2.366,2.3657,2.3666,2.3663,2.3663,2.3669,2.3666,2.3669,2.3666,2.367,2.367,2.3665,2.3666,2.366,2.366,2.3656,2.3661,2.3659,2.3662,2.366,2.3665,2.3664,2.3686,2.3687,2.3669,2.3669,2.3669,0,2.3675,2.3681,2.3679,2.3681,2.3681,2.3684,2.3685,2.3679,2.368,2.3678,2.3681,2.3681,2.3681,2.3682,2.3677,2.3676,2.3673,2.368,2.3673,2.3673,2.3671,2.367,2.3669,2.3682,2.3682,2.3682,2.3682,0,2.37,2.3697,2.37,2.3701,2.3702,2.3703,2.3702,2.3704,2.3697,2.3698,2.3699,2.3699,2.3698,2.3697,2.3694,2.3692,2.3685,2.3685,2.3685,2.3687,2.3687,2.3685,2.3665,2.3684,2.3684,2.3684,2.3684,2.3684,2.3718,2.3722,2.372,2.3722,2.3721,2.3721,2.3723,2.3719,2.372,2.3719,2.3715,2.3716,2.3712,2.3708,2.3706,2.3705,2.3701,2.3703,2.3703,2.3703,2.3703,2.3688,2.3704,2.3704,2.3704,2.3704,2.3704,0,2.3741,2.3739,2.3741,2.374,2.3741,2.3735,2.3734,2.3734,2.3735,2.3733,2.3732,2.3731,2.373,2.3724,2.3722,2.3722,2.3718,2.3721,2.3721,2.372,2.3708,2.3707,2.3724,2.3724,2.3724,2.3724,2.3724,2.3724,2.3753,2.3759,2.3755,2.3759,2.3756,2.3758,2.3757,2.3755,2.3753,2.3752,2.3751,2.3748,2.3743,2.3739,2.3737,2.3735,2.3733,2.3737,2.3734,2.3723,2.3721,2.3719,2.3718,2.3737,2.3737,2.3746,2.3746,2.3746]}]]